TimeCDT,TemperatureF,Dew PointF,Humidity,Sea Level PressureIn,VisibilityMPH,Wind Direction,Wind SpeedMPH,Gust SpeedMPH,PrecipitationIn,Events,Conditions,WindDirDegrees,DateUTC
12:54 AM,66.9,60.1,79,29.58,10.0,SSE,16.1,21.9,N/A,,Overcast,160,2013-04-09 05:54:00
1:25 AM,66.2,60.8,83,29.60,10.0,SSE,17.3,23.0,N/A,,Overcast,160,2013-04-09 06:25:00
1:54 AM,66.9,60.1,79,29.56,10.0,South,18.4,-,N/A,,Overcast,170,2013-04-09 06:54:00
2:25 AM,66.2,60.8,83,29.58,10.0,SSE,17.3,25.3,N/A,,Overcast,160,2013-04-09 07:25:00
2:43 AM,66.2,60.8,83,29.57,10.0,SSE,17.3,28.8,N/A,,Overcast,160,2013-04-09 07:43:00
2:54 AM,66.9,60.1,79,29.54,10.0,SSE,18.4,24.2,N/A,,Overcast,160,2013-04-09 07:54:00
3:54 AM,66.9,60.1,79,29.53,10.0,South,20.7,31.1,N/A,,Overcast,170,2013-04-09 08:54:00
4:54 AM,66.9,60.1,79,29.55,10.0,South,20.7,29.9,N/A,,Overcast,170,2013-04-09 09:54:00
5:09 AM,66.2,60.8,83,29.57,10.0,South,23.0,27.6,N/A,,Overcast,170,2013-04-09 10:09:00
5:54 AM,66.9,60.1,79,29.55,10.0,South,20.7,27.6,N/A,,Overcast,170,2013-04-09 10:54:00
6:54 AM,66.9,59.0,76,29.58,10.0,South,16.1,27.6,N/A,,Overcast,180,2013-04-09 11:54:00
7:54 AM,66.0,59.0,78,29.62,10.0,South,13.8,-,N/A,,Overcast,180,2013-04-09 12:54:00
8:33 AM,66.2,59.0,78,29.64,10.0,South,13.8,-,N/A,,Overcast,170,2013-04-09 13:33:00
8:54 AM,66.9,59.0,76,29.62,10.0,South,16.1,-,N/A,,Overcast,170,2013-04-09 13:54:00
9:54 AM,68.0,59.0,73,29.64,10.0,South,17.3,-,N/A,,Overcast,180,2013-04-09 14:54:00
10:10 AM,66.2,59.0,78,29.67,10.0,South,11.5,-,N/A,,Overcast,180,2013-04-09 15:10:00
10:52 AM,69.8,60.8,73,29.67,10.0,South,12.7,-,N/A,,Mostly Cloudy,170,2013-04-09 15:52:00
10:54 AM,71.1,61.0,70,29.64,10.0,South,12.7,-,N/A,,Mostly Cloudy,170,2013-04-09 15:54:00
11:51 AM,73.4,60.8,65,29.66,10.0,South,16.1,26.5,N/A,,Mostly Cloudy,170,2013-04-09 16:51:00
11:54 AM,75.0,61.0,62,29.63,10.0,South,21.9,28.8,N/A,,Mostly Cloudy,170,2013-04-09 16:54:00
12:04 PM,73.4,60.8,65,29.66,10.0,SSE,20.7,25.3,N/A,,Mostly Cloudy,160,2013-04-09 17:04:00
12:54 PM,75.9,61.0,60,29.62,10.0,South,20.7,27.6,N/A,,Mostly Cloudy,180,2013-04-09 17:54:00
1:16 PM,73.4,60.8,65,29.65,10.0,South,16.1,27.6,N/A,,Overcast,180,2013-04-09 18:16:00
1:24 PM,73.4,60.8,65,29.65,10.0,South,15.0,-,N/A,,Overcast,180,2013-04-09 18:24:00
1:38 PM,73.4,60.8,65,29.65,10.0,South,16.1,-,N/A,,Overcast,180,2013-04-09 18:38:00
1:51 PM,73.4,60.8,65,29.65,10.0,South,13.8,-,N/A,,Overcast,180,2013-04-09 18:51:00
1:54 PM,73.0,61.0,66,29.62,10.0,South,13.8,-,N/A,,Overcast,170,2013-04-09 18:54:00
2:54 PM,72.0,62.1,71,29.62,8.0,South,11.5,-,N/A,,Overcast,170,2013-04-09 19:54:00
3:54 PM,55.9,50.0,80,29.66,10.0,WNW,20.7,31.1,0.00,,Overcast,300,2013-04-09 20:54:00
4:04 PM,55.4,48.2,77,29.67,10.0,NW,20.7,28.8,N/A,,Overcast,320,2013-04-09 21:04:00
4:34 PM,51.8,46.4,82,29.69,10.0,NW,19.6,-,N/A,,Overcast,320,2013-04-09 21:34:00
4:54 PM,53.1,46.0,77,29.69,10.0,NW,18.4,-,N/A,,Overcast,320,2013-04-09 21:54:00
5:54 PM,46.9,42.1,83,29.73,10.0,NNW,17.3,27.6,N/A,,Overcast,330,2013-04-09 22:54:00
6:54 PM,45.0,41.0,86,29.77,10.0,NNW,21.9,29.9,N/A,,Overcast,330,2013-04-09 23:54:00
7:54 PM,39.9,37.0,89,29.77,10.0,NNW,20.7,33.4,N/A,,Overcast,340,2013-04-10 00:54:00
8:54 PM,37.0,34.0,89,29.80,10.0,NNW,25.3,31.1,N/A,,Overcast,340,2013-04-10 01:54:00
9:54 PM,35.1,32.0,89,29.85,10.0,NNW,21.9,32.2,N/A,,Overcast,340,2013-04-10 02:54:00
10:36 PM,33.8,32.0,93,29.93,10.0,NW,21.9,34.5,0.01,,Overcast,320,2013-04-10 03:36:00
10:43 PM,33.8,32.0,93,29.91,10.0,NW,26.5,39.1,0.01,Thunderstorm,Overcast,320,2013-04-10 03:43:00
10:54 PM,34.0,33.1,96,29.91,10.0,NW,23.0,39.1,0.01,,Overcast,320,2013-04-10 03:54:00
11:06 PM,33.8,33.8,100,29.89,7.0,NNW,27.6,34.5,0.01,Snow-Thunderstorm,Light Snow,330,2013-04-10 04:06:00
11:19 PM,33.8,33.8,100,29.87,2.5,NNW,20.7,32.2,0.14,Rain-Thunderstorm,Light Freezing Rain,340,2013-04-10 04:19:00
11:27 PM,32.0,32.0,100,29.83,1.5,North,19.6,26.5,0.24,Rain-Thunderstorm,Light Freezing Rain,360,2013-04-10 04:27:00
11:29 PM,32.0,32.0,100,29.83,2.0,North,19.6,25.3,0.24,Snow-Thunderstorm,Light Thunderstorms and Snow,360,2013-04-10 04:29:00
11:42 PM,32.0,32.0,100,29.96,6.0,WNW,17.3,28.8,0.27,,Overcast,290,2013-04-10 04:42:00
11:54 PM,32.0,32.0,100,29.85,10.0,NNW,26.5,33.4,0.28,Thunderstorm,Thunderstorm,330,2013-04-10 04:54:00